Flag for Germany Weather past 2 weeks in Tübingen, Baden-Württemberg, Germany

Now
36 °F

Passing clouds.


Feels Like: 31 °F
Forecast: 28 / 48 °F
Wind: 6 mph from Southwest

Location: Stuttgart-Echterdingen

Current Time: Feb 28, 2015 at 9:21:55 PM

Latest Report: Feb 28, 2015 at 8:50 PM


Visibility: N/A

Pressure: 30.04 "Hg

Humidity: 81%

Dew point: 30 °F

Location of TübingenLocation

Historic Weather in Tübingen — Graph

°F

Tübingen temperature yesterday

Maximum temperature yesterday: 37 °F (at 8:50 AM)
Minimum temperature yesterday: 32 °F (at 1:50 AM)
Average temperature yesterday: 36 °F

Past Weeks' High & Low Weather Summary

 TemperatureHumidityPressure
High55 °F (Feb 20, 2:20 PM)100% (Feb 14, 7:50 AM)30.69 "Hg (Feb 14, 7:50 AM)
Low23 °F (Feb 20, 4:20 AM)34% (Feb 26, 3:20 PM)29.50 "Hg (Feb 23, 3:20 PM)
Average35 °F82%30.01 "Hg
* Reported Feb 13 8:20 PM — Feb 28 8:20 PM, Tübingen, Weather by CustomWeather, © 2015

Note: Actual official high and low records may vary slightly from our data, if they occured in-between our weather recording intervals... More about our weather records

Advertising

Tübingen weather history for previous 24 hours

 ConditionsComfort  
Time TempWeatherWind HumidityBarometerVisibility
8:20 PM
Sat, Feb 28
37 °FPassing clouds.5 mph75%30.04 "HgN/A
7:50 PM37 °FPassing clouds.6 mph75%30.04 "HgN/A
7:20 PM37 °FClear.7 mph75%30.04 "Hg10 mi
6:50 PM39 °FClear.7 mph70%30.04 "Hg10 mi
6:20 PM39 °FPassing clouds.7 mph70%30.04 "HgN/A
5:50 PM41 °FScattered clouds.9 mph70%30.04 "HgN/A
5:20 PM43 °FPartly sunny.9 mph66%30.04 "HgN/A
4:50 PM43 °FBroken clouds.7 mph66%30.04 "HgN/A
4:20 PM43 °FPartly sunny.3 mph66%30.07 "HgN/A
3:50 PM43 °FScattered clouds.5 mph61%30.07 "HgN/A
3:20 PM43 °FScattered clouds.6 mph66%30.07 "HgN/A
2:50 PM43 °FScattered clouds.3 mph61%30.07 "HgN/A
2:20 PM43 °FScattered clouds.3 mph61%30.07 "HgN/A
1:50 PM41 °FScattered clouds.3 mph70%30.09 "HgN/A
1:20 PM41 °FScattered clouds.1 mph70%30.09 "HgN/A
12:50 PM41 °FScattered clouds.2 mph76%30.12 "HgN/A
12:20 PM41 °FScattered clouds.2 mph70%30.12 "HgN/A
11:50 AM41 °FScattered clouds.1 mph76%30.12 "HgN/A
11:20 AM39 °FScattered clouds.2 mph70%30.15 "HgN/A
10:50 AM39 °FScattered clouds.1 mph75%30.15 "HgN/A
10:20 AM37 °FPartly sunny.3 mph81%30.15 "HgN/A
9:50 AM37 °FPartly sunny.3 mph81%30.15 "HgN/A
9:20 AM37 °FPassing clouds.5 mph81%30.15 "HgN/A
8:50 AM36 °FPassing clouds.3 mph93%30.15 "HgN/A
8:20 AM34 °FPassing clouds.1 mph93%30.15 "HgN/A
7:50 AM34 °FFog.No wind93%30.15 "HgN/A
7:20 AM34 °FFog.2 mph93%30.15 "HgN/A
6:50 AM36 °FPassing clouds.3 mph87%30.15 "HgN/A
6:20 AM36 °FChilly.3 mph87%30.15 "HgN/A
5:50 AM36 °FPassing clouds.5 mph93%30.12 "HgN/A
5:20 AM36 °FPassing clouds.3 mph93%30.12 "HgN/A
4:50 AM36 °FPassing clouds.2 mph93%30.12 "HgN/A
4:20 AM36 °FPassing clouds.1 mph93%30.12 "HgN/A
3:50 AM36 °FPassing clouds.5 mph93%30.12 "HgN/A
3:20 AM36 °FPassing clouds.6 mph87%30.12 "HgN/A
2:50 AM36 °FPassing clouds.7 mph93%30.12 "HgN/A
2:20 AM36 °FPassing clouds.8 mph93%30.12 "HgN/A
1:50 AM36 °FLight rain. Passing clouds.8 mph93%30.12 "HgN/A
1:20 AM36 °FLight rain. Partly cloudy.10 mph93%30.12 "Hg4 mi
12:50 AM36 °FLight rain. Partly cloudy.12 mph93%30.12 "Hg4 mi
12:20 AM36 °FLight rain. Partly cloudy.10 mph93%30.12 "Hg6 mi
11:50 PM
Fri, Feb 27
36 °FLight rain. Partly cloudy.12 mph93%30.12 "Hg4 mi
11:20 PM36 °FLight rain. Partly cloudy.12 mph93%30.12 "Hg5 mi
10:50 PM36 °FLight rain. Partly cloudy.12 mph100%30.09 "Hg5 mi
10:20 PM36 °FLight rain. Partly cloudy.13 mph100%30.09 "Hg5 mi
9:50 PM36 °FLight rain. Partly cloudy.14 mph100%30.09 "Hg5 mi
9:20 PM36 °FLight rain. Passing clouds.13 mph100%30.09 "Hg5 mi
Weather by CustomWeather, © 2015

See weather overviewHow to use our weather pages